Regional Weather Roundup
Issued by NWS

Home | Current Version | Previous Version | Graphics & Text | Print | Product List | Glossary On
Versions: 1 2 3 4 5 6 7 8 9 10 11 12 13 14 15 16 17 18 19 20 21 22 23 24 25 26 27 28 29 30 31 32 33 34 35 36 37 38 39 40 41 42 43 44 45 46 47 48 49 50
000
ASUS43 KFSD 162102
RWRSD

WEATHER ROUNDUP FOR SOUTH DAKOTA
NATIONAL WEATHER SERVICE SIOUX FALLS SD
400 PM CDT MON OCT 16 2017

NOTE: "FAIR" INDICATES FEW OR NO CLOUDS BELOW 12,000 FEET WITH NO
SIGNIFICANT WEATHER AND/OR OBSTRUCTIONS TO VISIBILITY.


SDZ001>005-009-010-012>017-162200-
NORTHWEST AND NORTH CENTRAL SOUTH DAKOTA

CITY           SKY/WX    TMP DP  RH WIND       PRES   REMARKS
BUFFALO          N/A     70  28  21 NW23G30   29.98F
FAITH            N/A     73  28  18 NW20      30.01S
MOBRIDGE       CLOUDY    76  35  22 NW14      29.94S
$$

SDZ012>016-024>037-041>051-057-063-072>074-162200-
SOUTHWEST AND SOUTH CENTRAL SOUTH DAKOTA

CITY           SKY/WX    TMP DP  RH WIND       PRES   REMARKS
RAPID CTY ARPT SUNNY     76  26  15 N13       30.05F
PIERRE         SUNNY     72  38  29 W7        29.99F
CUSTER         SUNNY     66  19  16 VRB7      30.16S
ELLSWORTH AFB  SUNNY     75  26  16 N20       30.04F
PHILIP         SUNNY     78  30  17 NW7       30.01F
PINE RIDGE     SUNNY     73  26  17 NW15      30.08F
SPEARFISH      FAIR      70  27  19 NW18      30.10S
WINNER         FAIR      75  41  29 NW9       30.02F
$$

SDZ004>011-016>023-039-040-162200-
NORTHEAST SOUTH DAKOTA

CITY           SKY/WX    TMP DP  RH WIND       PRES   REMARKS
ABERDEEN       SUNNY     70  40  33 S9        29.96F
WATERTOWN      CLOUDY    67  40  37 SW15      29.98S
BROOKINGS      SUNNY     70  39  32 SW13      30.00F
SISSETON         N/A     70  39  32 SW15      29.93F
$$

SDZ017-020-022-023-036>040-048>070-162200-
SOUTHEAST SOUTH DAKOTA

CITY           SKY/WX    TMP DP  RH WIND       PRES   REMARKS
SIOUX FALLS    MOSUNNY   73  40  30 S16G23    30.02F
HURON          SUNNY     68  42  38 W7        30.00F
MITCHELL       SUNNY     74  37  26 SW10      30.00F
YANKTON        SUNNY     77  36  22 SW15G21   30.01F
$$

ABBREVIATIONS USED IN REMARKS
   TC - TEMPERATURE IN CELSIUS
  WCI - WIND CHILL INDEX
   HX - HEAT INDEX
  VSB - VISIBILITY





USA.gov is the U.S. government's official web portal to all federal, state and local government web resources and services.